Regional Weather Roundup
Issued by NWS Midland/Odessa, TX

Skip options and go directly to product.
Home | Oldest Version | Previous Version | Current Version | All | Text Only | Save Text | Print | Product List | Glossary On

Skip product version selection by date and time.   
518
ASUS44 KMAF 280910
RWRMAF
MIDLAND AREA WEATHER ROUNDUP
NATIONAL WEATHER SERVICE MIDLAND TX
400 AM CDT TUE JUN 28 2016

...IN SOUTHWEST TEXAS AND SOUTHEAST NEW MEXICO...

CITY           SKY/WX    TMP DP  RH WIND       PRES   REMARKS
ALPINE         CLOUDY    68  63  83 E6        30.30S
ANDREWS        CLOUDY    70  62  74 CALM      30.21S
ARTESIA        CLEAR     70  68  94 NE5       30.24S
BIG SPRING     CLOUDY    75  62  64 NW5       30.19S
CARLSBAD       CLOUDY    70  66  87 N6        30.20S
DRYDEN           N/A     73  67  81 NE5       30.11S
FORT STOCKTON  CLOUDY    73  66  78 SE8       30.17S
GUAD PASS      RAIN      62  62 100 E24       30.29F VSB 1/2
HOBBS          CLOUDY    68  66  94 N5        30.25S
MARFA          CLOUDY   N/A N/A N/A E6        30.27R
MIDLAND AIRPK  CLOUDY    74  65  73 N3        30.19S
MIDLAND INTL   CLOUDY    73  66  78 N3        30.18S
ODESSA         CLOUDY    72  64  76 NE8       30.19S
PECOS          CLOUDY    73  68  85 E6        30.16R
PRESIDIO       NOT AVBL
SEMINOLE       CLOUDY    70  59  67 CALM      30.23S
SNYDER         LGT RAIN  73  62  70 N7        30.18R
WINK           LGT RAIN  70  67  90 SE5       30.17S
$$
...OTHER STATIONS IN TEXAS...

CITY           SKY/WX    TMP DP  RH WIND       PRES   REMARKS
ABILENE        CLOUDY    73  68  84 SE6       30.13S
AMARILLO       CLEAR     68  59  73 CALM      30.25S
AUSTIN         PTCLDY    74  71  91 CALM      30.05S
BROWNSVILLE    CLEAR     78  76  93 S3        30.01F
CORPUS CHRISTI PTCLDY    76  73  91 CALM      30.02S
DALLAS FTW     PTCLDY    80  71  74 N5        30.04F
DEL RIO        CLEAR     78  69  73 E5        30.05R
EL PASO        PTCLDY    74  61  63 NE12      30.18F
HOUSTON INT    CLOUDY    79  75  87 CALM      30.03S
LUBBOCK        CLOUDY    68  59  73 NW6       30.22S
SAN ANGELO     CLOUDY    74  71  91 CALM      30.12S
SAN ANTONIO    PTCLDY    77  70  79 W3        30.07S
WACO           CLEAR     77  72  84 CALM      30.04F
WICHITA FALLS  NOT AVBL
$$
...OTHER LOCATIONS IN NEW MEXICO...

CITY           SKY/WX    TMP DP  RH WIND       PRES   REMARKS
ALAMAGORDO     CLEAR     72  57  60 N5        30.23R
ALBUQUERQUE    PTCLDY    71  55  56 E12       30.34R
CANNON AFB     CLEAR     65  63  92 NW5       30.30R
CLOVIS         CLEAR     63  57  82 W6        30.30R
HOLLOMAN AFB   PTCLDY    70  59  69 NW7       30.20S
ROSWELL        CLEAR     68  61  78 SW3       30.25S
RUIDOSO          N/A     59  57  94 SE6       30.44S
SANTA FE       CLEAR     63  52  67 SE7       30.42R
TRUTH OR CONSE CLEAR     71  52  50 N6        30.25F
TUCUMCARI      CLEAR     67  59  75 W7        30.28R
$$

USA.gov is the U.S. government's official web portal to all federal, state and local government web resources and services.